Simultaneous Nadir Overpasses (SNOs) Predictions

Prediction of SNOs between GOES-16 and METOP-C Satellite Orbit:

Table of predicted SNOs for the next 14.0 days since TLE Epoch: 3/28/2021
Index Date Time (GOES-16) GOES-16 Lat,Lon METOP-C Lat,Lon Distance(km) Time Diff (sec)
1 03/29/2021 02:14:23 -0.04, -75.21 0.89, -71.07 471.06 80
2 03/30/2021 14:33:15 0.04, -75.24 0.16, -75.63 45.66 80
3 04/02/2021 02:34:16 -0.04, -75.22 -0.04, -75.24 1.92 80
4 04/04/2021 14:32:30 0.03, -75.26 -0.08, -74.82 51.17 80
5 04/06/2021 02:51:29 -0.03, -75.25 -0.97, -79.41 473.60 80
6 04/07/2021 02:28:10 -0.03, -75.26 0.13, -74.41 96.53 80
7 04/08/2021 14:47:03 0.03, -75.31 0.83, -78.99 418.81 80
8 04/09/2021 14:29:03 0.03, -75.33 -0.28, -73.99 152.15 80
